Hourly Data Report for January 26, 2003

TORONTO CITY
ONTARIO

43°40'00.000" N
79°24'00.000" W
112.50 m
6158355
71508
XTO

Download Data

Hourly Data (January 2003)
Hourly Data Report for January 26, 2003
TIME
LST
Temp Definition
°C
Dew Point Definition
°C
Rel Hum Definition
%
Precip. Amount Definition
mm

Wind Dir Definition
10's deg

Wind Spd Definition
km/h
Visibility Definition
km
Stn Press Definition
kPa
Hmdx Definition


Wind Chill Definition


Weather Definition


00:00 -4.8 -6.6 87     0 LegendMM 100.16     LegendNANA
01:00
02:00 -4.3 -6.5 85     0 LegendMM 100.07     LegendNANA
03:00 -4.0 -6.4 83     0 LegendMM 100.05     LegendNANA
04:00
05:00 -4.3 -5.6 91     0 LegendMM 100.02     LegendNANA
06:00 -4.7 -6.8 85     0 LegendMM 100.06     LegendNANA
07:00 -5.4 -7.2 87     0 LegendMM 100.12     LegendNANA
08:00 -6.7 -8.4 88     0 LegendMM 100.18     LegendNANA
09:00 -7.1 -9.6 82     0 LegendMM 100.29     LegendNANA
10:00 -7.5 -11.8 71     0 LegendMM 100.36     LegendNANA
11:00 -7.5 -13.8 61     0 LegendMM 100.41     LegendNANA
12:00 -7.9 -16.4 50     0 LegendMM 100.45     LegendNANA
13:00 -8.7 -16.0 55     0 LegendMM 100.45     LegendNANA
14:00 -10.5 -18.8 51     0 LegendMM 100.53     LegendNANA
15:00 -10.8 -20.8 44     0 LegendMM 100.62     LegendNANA
16:00 -11.7 -21.6 44     0 LegendMM 100.71     LegendNANA
17:00 -12.7 -22.0 46     0 LegendMM 100.81     LegendNANA
18:00 -13.2 -21.5 50     0 LegendMM 100.96     LegendNANA
19:00 -13.9 -21.7 52     0 LegendMM 101.10     LegendNANA
20:00 -14.7 -20.6 61     0 LegendMM 101.15     LegendNANA
21:00 -14.7 -19.7 66     0 LegendMM 101.18     LegendNANA
22:00 -14.7 -20.5 61     0 LegendMM 101.21     LegendNANA
23:00 -15.9 -20.9 65     0 LegendMM 101.32     LegendNANA

Notes on Data Quality.

Legend

  • E = Estimated
  • M = Missing
  • NA = Not Available*
  • [empty] = Indicates an unobserved value
Date modified: